Location: Dehesa de la Cepeda
(40.6574°N, 4.3013°W)
Time: 20:15:53
(UTC+00:00)

Vanguard 2 Rocket - Pass Details

Date: 04 August 2021
Orbit: 556 x 3324 km, 32.9° (Epoch: 19 September)

Event Time Altitude Azimuth Distance (km) Brightness Sun altitude
Rises 07:14:10 0° 241° (WSW) 3,184 9.2 20.6°
Reaches altitude 10° 07:17:08 10° 229° (SW) 2,032 8.3 21.1°
Maximum altitude 07:20:45 25° 172° (S) 1,159 7.7 21.8°
Drops below altitude 10° 07:24:02 10° 115° (ESE) 1,829 9.7 22.4°
Sets 07:26:32 0° 101° (ESE) 2,788 10.7 22.9°
